AFR082 LFPG-KSFO

Flight info

Callsign AFR082
Flight time N/A
Altitude 34000
Route ATREX6K ATREX DCT VESAN DCT RATUK DCT SOVAT DCT LESTA UP6 RODOL UM65 TENSO L603 BELOX DCT GOMUP/M085F350 NATA LIBOR/M085F360 DCT BERUS/N0500F360 DCT YFB DCT 63N080W 61N090W 57N100W/N0493F380 DCT POLLE DCT WALSH DCT BOI DCT MRRLO BDEGA4
Aircraft A359/H-SDE2E3GHIJ3J4J5LM1ORWXY/LB1D1

Departure

Time 2026-05-07 22:52
Airport Charles de Gaulle International Airport (LFPG)

Arrival

Time N/A
Airport San Francisco International Airport (KSFO)
Time Latitude Longitude Altitude Speed Heading
2026-05-07 22:38 49.00147 2.57822 348 ft 0 kts 355°
2026-05-07 22:40 49.00136 2.57824 348 ft 2 kts 354°
2026-05-07 22:40 49.00121 2.57826 347 ft 2 kts 355°
2026-05-07 22:40 49.00106 2.57828 347 ft 2 kts 356°
2026-05-07 22:41 49.00091 2.57830 347 ft 2 kts 356°
2026-05-07 22:41 49.00076 2.57831 346 ft 2 kts 20°
2026-05-07 22:41 49.00066 2.57818 346 ft 2 kts 72°
2026-05-07 22:41 49.00064 2.57796 347 ft 2 kts 92°
2026-05-07 22:42 49.00064 2.57773 347 ft 2 kts 88°
2026-05-07 22:42 49.00064 2.57750 348 ft 2 kts 86°
2026-05-07 22:42 49.00063 2.57727 348 ft 2 kts 85°
2026-05-07 22:42 49.00061 2.57705 348 ft 2 kts 85°
2026-05-07 22:43 49.00060 2.57687 348 ft 0 kts 85°
2026-05-07 22:44 49.00061 2.57690 348 ft 1 kts 86°
2026-05-07 22:44 49.00057 2.57722 348 ft 3 kts 111°
2026-05-07 22:45 49.00022 2.57746 347 ft 9 kts 182°
2026-05-07 22:45 48.99973 2.57703 347 ft 6 kts 264°
2026-05-07 22:45 48.99975 2.57639 349 ft 5 kts 268°
2026-05-07 22:45 48.99972 2.57565 352 ft 9 kts 263°
2026-05-07 22:46 48.99963 2.57437 355 ft 12 kts 265°
2026-05-07 22:46 48.99957 2.57315 357 ft 11 kts 265°
2026-05-07 22:46 48.99950 2.57196 357 ft 11 kts 265°
2026-05-07 22:46 48.99943 2.57068 357 ft 12 kts 265°
2026-05-07 22:47 48.99936 2.56928 355 ft 14 kts 266°
2026-05-07 22:47 48.99928 2.56761 352 ft 17 kts 266°
2026-05-07 22:47 48.99918 2.56574 348 ft 17 kts 265°
2026-05-07 22:47 48.99906 2.56403 346 ft 15 kts 266°
2026-05-07 22:48 48.99898 2.56235 343 ft 17 kts 266°
2026-05-07 22:48 48.99891 2.56060 339 ft 16 kts 268°
2026-05-07 22:48 48.99897 2.55900 336 ft 12 kts 275°
2026-05-07 22:48 48.99857 2.55809 335 ft 11 kts 201°
2026-05-07 22:49 48.99791 2.55802 336 ft 8 kts 180°
2026-05-07 22:49 48.99760 2.55802 336 ft 0 kts 179°
2026-05-07 22:50 48.99753 2.55803 336 ft 4 kts 174°
2026-05-07 22:50 48.99700 2.55814 338 ft 8 kts 173°
2026-05-07 22:50 48.99638 2.55827 338 ft 8 kts 162°
2026-05-07 22:50 48.99607 2.55871 338 ft 2 kts 104°
2026-05-07 22:51 48.99606 2.55904 338 ft 5 kts 90°
2026-05-07 22:51 48.99622 2.56211 341 ft 60 kts 86°
2026-05-07 22:51 48.99670 2.57182 349 ft 121 kts 85°
2026-05-07 22:51 48.99757 2.58730 376 ft 167 kts 84°
2026-05-07 22:52 48.99847 2.60488 920 ft 170 kts 85°
2026-05-07 22:52 48.99942 2.62331 1507 ft 174 kts 85°
2026-05-07 22:52 49.00043 2.64199 2036 ft 183 kts 85°
2026-05-07 22:52 49.00149 2.66187 2485 ft 197 kts 85°
2026-05-07 22:53 49.00263 2.68305 2802 ft 209 kts 85°
2026-05-07 22:53 49.00383 2.70574 3087 ft 222 kts 85°
2026-05-07 22:53 49.00510 2.72996 3388 ft 235 kts 85°
2026-05-07 22:53 49.00641 2.75520 3742 ft 246 kts 85°
2026-05-07 22:54 49.00773 2.78114 4314 ft 249 kts 86°
2026-05-07 22:54 49.00906 2.80751 4898 ft 251 kts 85°
2026-05-07 22:54 49.01101 2.83412 5454 ft 254 kts 74°
2026-05-07 22:54 49.01977 2.85692 5983 ft 258 kts 42°
2026-05-07 22:55 49.03524 2.87011 6585 ft 260 kts 13°
2026-05-07 22:55 49.05327 2.87000 7106 ft 265 kts 343°
2026-05-07 22:55 49.07016 2.85936 7638 ft 268 kts 336°
2026-05-07 22:55 49.08731 2.84748 8082 ft 274 kts 336°
2026-05-07 22:56 49.10475 2.83545 8620 ft 277 kts 336°
2026-05-07 22:56 49.12242 2.82334 9162 ft 279 kts 336°
2026-05-07 22:56 49.14012 2.81127 9684 ft 281 kts 336°
2026-05-07 22:56 49.15794 2.79915 10194 ft 284 kts 336°
2026-05-07 22:57 49.17629 2.78670 10623 ft 290 kts 336°
2026-05-07 22:57 49.19505 2.77398 10874 ft 302 kts 336°
2026-05-07 22:57 49.21465 2.76069 11132 ft 315 kts 335°
2026-05-07 22:57 49.23492 2.74695 11387 ft 327 kts 335°
2026-05-07 22:58 49.25619 2.73251 11643 ft 339 kts 335°
2026-05-07 22:58 49.27820 2.71756 11885 ft 351 kts 335°
2026-05-07 22:58 49.30059 2.70232 12156 ft 361 kts 335°
2026-05-07 22:58 49.32368 2.68661 12612 ft 365 kts 335°
2026-05-07 22:59 49.34705 2.67068 13116 ft 367 kts 335°
2026-05-07 22:59 49.37024 2.65486 13601 ft 370 kts 335°
2026-05-07 22:59 49.39380 2.63877 14083 ft 372 kts 335°
2026-05-07 22:59 49.41751 2.62255 14553 ft 375 kts 335°
2026-05-07 23:00 49.44144 2.60616 15013 ft 377 kts 334°
2026-05-07 23:00 49.46543 2.58972 15466 ft 379 kts 334°
2026-05-07 23:00 49.48942 2.57325 15915 ft 382 kts 334°
2026-05-07 23:00 49.51359 2.55664 16360 ft 384 kts 334°
2026-05-07 23:01 49.53788 2.53993 16799 ft 386 kts 334°
2026-05-07 23:01 49.56273 2.52282 17237 ft 388 kts 334°
2026-05-07 23:01 49.58737 2.50582 17663 ft 390 kts 334°
2026-05-07 23:01 49.61196 2.48884 18079 ft 392 kts 334°
2026-05-07 23:02 49.63671 2.47173 18490 ft 394 kts 334°
2026-05-07 23:02 49.66207 2.45417 18898 ft 396 kts 334°
2026-05-07 23:02 49.68708 2.43682 19289 ft 398 kts 334°
2026-05-07 23:02 49.71218 2.41938 19671 ft 400 kts 334°
2026-05-07 23:03 49.73775 2.40160 20056 ft 402 kts 334°
2026-05-07 23:03 49.76326 2.38386 20431 ft 404 kts 334°
2026-05-07 23:03 49.78902 2.36664 20793 ft 407 kts 337°
2026-05-07 23:03 49.81541 2.35106 21158 ft 409 kts 338°
2026-05-07 23:04 49.84228 2.33557 21525 ft 411 kts 337°
2026-05-07 23:04 49.86899 2.32014 21888 ft 413 kts 337°
2026-05-07 23:04 49.89580 2.30463 22241 ft 415 kts 337°
2026-05-07 23:04 49.92303 2.28886 22591 ft 417 kts 337°
2026-05-07 23:05 49.95017 2.27312 22931 ft 419 kts 337°
2026-05-07 23:05 49.97761 2.25720 23259 ft 421 kts 337°
2026-05-07 23:05 50.00486 2.24137 23581 ft 423 kts 337°
2026-05-07 23:05 50.03239 2.22535 23899 ft 425 kts 337°
2026-05-07 23:06 50.06014 2.20918 24212 ft 426 kts 337°
2026-05-07 23:06 50.08786 2.19301 24513 ft 428 kts 337°
2026-05-07 23:06 50.11584 2.17668 24808 ft 430 kts 337°
2026-05-07 23:06 50.14373 2.16045 25104 ft 431 kts 337°
2026-05-07 23:07 50.17195 2.14400 25390 ft 433 kts 337°
2026-05-07 23:07 50.20029 2.12742 25657 ft 435 kts 337°
2026-05-07 23:07 50.22826 2.11100 25913 ft 437 kts 337°
2026-05-07 23:07 50.25676 2.09422 26166 ft 438 kts 337°
2026-05-07 23:08 50.28518 2.07745 26413 ft 440 kts 337°
2026-05-07 23:08 50.31411 2.06039 26647 ft 442 kts 337°
2026-05-07 23:08 50.34250 2.04300 26875 ft 442 kts 333°
2026-05-07 23:08 50.36990 2.02111 27091 ft 442 kts 327°
2026-05-07 23:09 50.39542 1.99427 27311 ft 441 kts 320°
2026-05-07 23:09 50.41893 1.96390 27528 ft 442 kts 317°
2026-05-07 23:09 50.44225 1.93207 27728 ft 443 kts 316°
2026-05-07 23:09 50.46517 1.90043 27915 ft 445 kts 316°
2026-05-07 23:10 50.48848 1.86828 28112 ft 447 kts 317°
2026-05-07 23:10 50.51203 1.83587 28310 ft 448 kts 317°
2026-05-07 23:10 50.53543 1.80372 28505 ft 449 kts 317°
2026-05-07 23:10 50.55882 1.77158 28682 ft 450 kts 317°
2026-05-07 23:11 50.58226 1.73933 28849 ft 451 kts 317°
2026-05-07 23:11 50.60584 1.70685 29021 ft 453 kts 317°
2026-05-07 23:11 50.62946 1.67430 29196 ft 454 kts 317°
2026-05-07 23:11 50.65331 1.64139 29370 ft 455 kts 317°
2026-05-07 23:12 50.67709 1.60858 29541 ft 455 kts 317°
2026-05-07 23:12 50.70098 1.57553 29696 ft 457 kts 316°
2026-05-07 23:12 50.72472 1.54262 29842 ft 458 kts 316°
2026-05-07 23:12 50.74860 1.50945 29996 ft 459 kts 317°
2026-05-07 23:13 50.77256 1.47632 30150 ft 460 kts 318°
2026-05-07 23:13 50.79724 1.44474 30299 ft 462 kts 320°
2026-05-07 23:13 50.82267 1.41353 30455 ft 463 kts 320°
2026-05-07 23:13 50.84827 1.38231 30604 ft 464 kts 320°
2026-05-07 23:14 50.87382 1.35113 30755 ft 464 kts 320°
2026-05-07 23:14 50.89928 1.31987 30902 ft 465 kts 319°
2026-05-07 23:14 50.92463 1.28857 31035 ft 466 kts 319°
2026-05-07 23:14 50.95008 1.25710 31167 ft 467 kts 319°
2026-05-07 23:15 50.97582 1.22524 31300 ft 467 kts 319°
2026-05-07 23:15 51.00141 1.19354 31418 ft 468 kts 319°
2026-05-07 23:15 51.02688 1.16197 31534 ft 469 kts 319°
2026-05-07 23:15 51.05257 1.13009 31648 ft 469 kts 319°
2026-05-07 23:16 51.07812 1.09834 31768 ft 470 kts 319°
2026-05-07 23:16 51.10387 1.06631 31880 ft 470 kts 319°
2026-05-07 23:16 51.12967 1.03432 31997 ft 470 kts 319°
2026-05-07 23:16 51.15548 1.00233 32115 ft 471 kts 319°
2026-05-07 23:17 51.18120 0.97035 32230 ft 471 kts 319°
2026-05-07 23:17 51.20682 0.93841 32342 ft 471 kts 319°
2026-05-07 23:17 51.23284 0.90585 32445 ft 471 kts 319°
2026-05-07 23:18 51.28407 0.84156 32628 ft 472 kts 319°
2026-05-07 23:18 51.33544 0.77686 32819 ft 472 kts 319°
2026-05-07 23:19 51.38695 0.71180 32989 ft 472 kts 319°
2026-05-07 23:19 51.43841 0.64659 33133 ft 472 kts 319°
2026-05-07 23:20 51.48954 0.58160 33257 ft 473 kts 319°
2026-05-07 23:20 51.54114 0.51584 33394 ft 473 kts 319°
2026-05-07 23:21 51.59264 0.45000 33534 ft 473 kts 319°
2026-05-07 23:21 51.64380 0.38440 33645 ft 473 kts 319°
2026-05-07 23:22 51.69495 0.31851 33749 ft 473 kts 318°
2026-05-07 23:22 51.74628 0.25200 33886 ft 473 kts 318°
2026-05-07 23:23 51.79734 0.18580 33984 ft 473 kts 318°
2026-05-07 23:23 51.84879 0.11898 34087 ft 474 kts 318°
2026-05-07 23:24 51.89970 0.05270 34127 ft 474 kts 318°
2026-05-07 23:24 51.95088 -0.01413 34119 ft 473 kts 318°
2026-05-07 23:25 52.00214 -0.08126 34118 ft 473 kts 318°
2026-05-07 23:25 52.05327 -0.14841 34158 ft 475 kts 318°
2026-05-07 23:26 52.10466 -0.21614 34162 ft 477 kts 318°
2026-05-07 23:26 52.15617 -0.28384 34105 ft 479 kts 319°
2026-05-07 23:27 52.23370 -0.38636 34089 ft 480 kts 319°
2026-05-07 23:27 52.28503 -0.45467 34089 ft 480 kts 319°
2026-05-07 23:28 52.33670 -0.52370 34091 ft 480 kts 319°
2026-05-07 23:28 52.38805 -0.59253 34090 ft 480 kts 319°
2026-05-07 23:29 52.43953 -0.66177 34085 ft 480 kts 317°
2026-05-07 23:29 52.49106 -0.73159 34084 ft 480 kts 317°
2026-05-07 23:30 52.54214 -0.80090 34084 ft 480 kts 317°
2026-05-07 23:30 52.59354 -0.87073 34085 ft 480 kts 318°
2026-05-07 23:31 52.64496 -0.94083 34086 ft 479 kts 317°
2026-05-07 23:31 52.69611 -1.01081 34085 ft 480 kts 318°
2026-05-07 23:32 52.74672 -1.08150 34083 ft 479 kts 315°
2026-05-07 23:32 52.79529 -1.15657 34084 ft 479 kts 314°
2026-05-07 23:33 52.84326 -1.23213 34083 ft 479 kts 314°
2026-05-07 23:33 52.89131 -1.30798 34081 ft 479 kts 314°
2026-05-07 23:34 52.93953 -1.38428 34083 ft 479 kts 314°
2026-05-07 23:34 52.98743 -1.46032 34082 ft 480 kts 314°
2026-05-07 23:35 53.03556 -1.53703 34082 ft 480 kts 314°
2026-05-07 23:35 53.08372 -1.61396 34079 ft 480 kts 314°
2026-05-07 23:36 53.13187 -1.69089 34073 ft 481 kts 314°
2026-05-07 23:36 53.17987 -1.76792 34068 ft 482 kts 314°
2026-05-07 23:37 53.23041 -1.84096 34060 ft 484 kts 320°
2026-05-07 23:37 53.28551 -1.90557 34057 ft 487 kts 326°
2026-05-07 23:38 53.34398 -1.96271 34053 ft 488 kts 328°
2026-05-07 23:38 53.40280 -2.01831 34053 ft 489 kts 328°
2026-05-07 23:39 53.46178 -2.07445 34052 ft 490 kts 328°
2026-05-07 23:39 53.52047 -2.13211 34045 ft 489 kts 324°
2026-05-07 23:40 53.57247 -2.20456 34052 ft 485 kts 312°
2026-05-07 23:40 53.61392 -2.29265 34049 ft 482 kts 300°
2026-05-07 23:41 53.64373 -2.39277 34053 ft 479 kts 290°
2026-05-07 23:41 53.66758 -2.49740 34054 ft 479 kts 289°
2026-05-07 23:42 53.69112 -2.60235 34053 ft 479 kts 289°
2026-05-07 23:42 53.71462 -2.70680 34057 ft 479 kts 288°
2026-05-07 23:43 53.73824 -2.81209 34056 ft 478 kts 288°
2026-05-07 23:43 53.76157 -2.91630 34057 ft 477 kts 288°
2026-05-07 23:44 53.78499 -3.02137 34057 ft 475 kts 288°
2026-05-07 23:44 53.80803 -3.12539 34053 ft 476 kts 288°
2026-05-07 23:45 53.83113 -3.23015 34047 ft 475 kts 288°
2026-05-07 23:45 53.85426 -3.33435 34044 ft 475 kts 290°
2026-05-07 23:46 53.88232 -3.43562 34044 ft 477 kts 296°
2026-05-07 23:46 53.91696 -3.53101 34041 ft 479 kts 303°
2026-05-07 23:47 53.95808 -3.61969 34040 ft 480 kts 309°
2026-05-07 23:47 54.00296 -3.70333 34034 ft 481 kts 310°
2026-05-07 23:48 54.04807 -3.78675 34030 ft 481 kts 310°
2026-05-07 23:48 54.09309 -3.87033 34026 ft 480 kts 309°
2026-05-07 23:49 54.13835 -3.95430 34022 ft 481 kts 310°
2026-05-07 23:49 54.18308 -4.03755 34017 ft 480 kts 310°
2026-05-07 23:50 54.22807 -4.12186 34010 ft 480 kts 309°
2026-05-07 23:50 54.27274 -4.20601 34007 ft 480 kts 309°
2026-05-07 23:51 54.31757 -4.29082 34004 ft 480 kts 309°
2026-05-07 23:51 54.36216 -4.37545 33999 ft 480 kts 309°
2026-05-07 23:52 54.40684 -4.46058 33999 ft 481 kts 309°
2026-05-07 23:52 54.45146 -4.54588 33997 ft 482 kts 309°
2026-05-07 23:53 54.49609 -4.63153 34000 ft 483 kts 309°
2026-05-07 23:53 54.54053 -4.71726 33998 ft 483 kts 308°
2026-05-07 23:54 54.58517 -4.80376 33996 ft 484 kts 308°
2026-05-07 23:54 54.62987 -4.89051 33995 ft 484 kts 308°
2026-05-07 23:55 54.67419 -4.97684 33990 ft 485 kts 308°
2026-05-07 23:55 54.71887 -5.06417 33986 ft 485 kts 308°
2026-05-07 23:56 54.76347 -5.15163 33983 ft 486 kts 308°
2026-05-07 23:56 54.80795 -5.23914 33981 ft 486 kts 308°
2026-05-07 23:57 54.85235 -5.32682 33979 ft 486 kts 308°
2026-05-07 23:57 54.89678 -5.41485 33977 ft 486 kts 308°
2026-05-07 23:58 54.94136 -5.50350 33976 ft 487 kts 308°
2026-05-07 23:58 54.98563 -5.59187 33974 ft 487 kts 308°
2026-05-07 23:59 55.02980 -5.68043 33973 ft 486 kts 307°
2026-05-07 23:59 55.07391 -5.76943 33972 ft 486 kts 307°
2026-05-08 00:00 55.11811 -5.85870 33969 ft 486 kts 307°
2026-05-08 00:00 55.16221 -5.94742 33968 ft 487 kts 307°
2026-05-08 00:01 55.20645 -6.03703 33966 ft 487 kts 307°
2026-05-08 00:01 55.25050 -6.12681 33964 ft 488 kts 307°
2026-05-08 00:02 55.29441 -6.21673 33961 ft 488 kts 307°
2026-05-08 00:02 55.33831 -6.30699 33960 ft 487 kts 306°
2026-05-08 00:03 55.38226 -6.39770 33958 ft 487 kts 306°
2026-05-08 00:03 55.42580 -6.48793 33955 ft 487 kts 306°
2026-05-08 00:04 55.46941 -6.57863 33951 ft 487 kts 306°
2026-05-08 00:04 55.51309 -6.66983 33950 ft 487 kts 305°
2026-05-08 00:05 55.55667 -6.76142 33951 ft 486 kts 305°
2026-05-08 00:05 55.59993 -6.85256 33951 ft 486 kts 305°
2026-05-08 00:06 55.64319 -6.94393 33950 ft 486 kts 305°
2026-05-08 00:06 55.68630 -7.03533 33951 ft 486 kts 305°
2026-05-08 00:07 55.72969 -7.12762 33949 ft 486 kts 305°
2026-05-08 00:07 55.77268 -7.21941 33946 ft 486 kts 305°
2026-05-08 00:08 55.81573 -7.31168 33941 ft 486 kts 305°
2026-05-08 00:08 55.85864 -7.40400 33935 ft 485 kts 305°
2026-05-08 00:09 55.90130 -7.49612 33930 ft 485 kts 304°
2026-05-08 00:09 55.94400 -7.58872 33930 ft 485 kts 304°
2026-05-08 00:10 55.98659 -7.68147 33933 ft 485 kts 303°
2026-05-08 00:10 56.02920 -7.77486 33933 ft 484 kts 303°
2026-05-08 00:11 56.07165 -7.86815 33929 ft 485 kts 303°
2026-05-08 00:11 56.11408 -7.96154 33924 ft 485 kts 303°
2026-05-08 00:12 56.15661 -8.05483 33925 ft 485 kts 303°
2026-05-08 00:12 56.19904 -8.14860 33922 ft 485 kts 303°
2026-05-08 00:13 56.24109 -8.24215 33918 ft 485 kts 303°
2026-05-08 00:13 56.28326 -8.33641 33913 ft 485 kts 303°
2026-05-08 00:14 56.32546 -8.43115 33908 ft 485 kts 303°
2026-05-08 00:14 56.36745 -8.52575 33903 ft 484 kts 303°
2026-05-08 00:15 56.40911 -8.62005 33899 ft 484 kts 303°
2026-05-08 00:15 56.45094 -8.71524 33895 ft 484 kts 302°
2026-05-08 00:16 56.49252 -8.81032 33892 ft 484 kts 302°
2026-05-08 00:16 56.53418 -8.90580 33887 ft 484 kts 302°
2026-05-08 00:17 56.57590 -9.00175 33882 ft 484 kts 302°
2026-05-08 00:17 56.61731 -9.09734 33875 ft 484 kts 302°
2026-05-08 00:18 56.65863 -9.19312 33871 ft 484 kts 302°
2026-05-08 00:18 56.70002 -9.28944 33869 ft 483 kts 302°
2026-05-08 00:19 56.74113 -9.38547 33869 ft 483 kts 302°
2026-05-08 00:19 56.78220 -9.48184 33869 ft 483 kts 302°
2026-05-08 00:20 56.82315 -9.57832 33868 ft 483 kts 302°
2026-05-08 00:20 56.86419 -9.67547 33869 ft 482 kts 301°
2026-05-08 00:21 56.90463 -9.77184 33867 ft 482 kts 301°
2026-05-08 00:21 56.94540 -9.86923 33866 ft 482 kts 301°
2026-05-08 00:22 56.98454 -9.96812 33863 ft 478 kts 296°
2026-05-08 00:22 57.01758 -10.07195 33861 ft 472 kts 291°
2026-05-08 00:23 57.04549 -10.17977 33839 ft 469 kts 288°
2026-05-08 00:23 57.07255 -10.28872 33828 ft 469 kts 289°
2026-05-08 00:24 57.09945 -10.39731 33850 ft 469 kts 289°
2026-05-08 00:24 57.12656 -10.50596 33862 ft 469 kts 289°
2026-05-08 00:25 57.15359 -10.61488 33838 ft 469 kts 289°
2026-05-08 00:25 57.18027 -10.72371 33823 ft 468 kts 289°
2026-05-08 00:26 57.20690 -10.83303 33849 ft 467 kts 289°
2026-05-08 00:26 57.23342 -10.94229 33866 ft 466 kts 289°
2026-05-08 00:27 57.25969 -11.05110 33869 ft 467 kts 289°
2026-05-08 00:27 57.28603 -11.16084 33870 ft 467 kts 289°
2026-05-08 00:28 57.31205 -11.26983 33870 ft 467 kts 289°
2026-05-08 00:28 57.33823 -11.38003 33870 ft 468 kts 289°
2026-05-08 00:29 57.36425 -11.49007 33869 ft 468 kts 289°
2026-05-08 00:29 57.39002 -11.59963 33869 ft 468 kts 290°
2026-05-08 00:30 57.41593 -11.71041 33869 ft 468 kts 289°
2026-05-08 00:30 57.44157 -11.82077 33870 ft 468 kts 289°
2026-05-08 00:31 57.46722 -11.93164 33871 ft 468 kts 289°
2026-05-08 00:31 57.49273 -12.04241 33875 ft 469 kts 289°
2026-05-08 00:32 57.51829 -12.15398 33875 ft 469 kts 289°
2026-05-08 00:32 57.54361 -12.26506 33877 ft 469 kts 289°
2026-05-08 00:33 57.56896 -12.37683 33889 ft 469 kts 289°
2026-05-08 00:33 57.59417 -12.48850 33897 ft 469 kts 289°
2026-05-08 00:34 57.61934 -12.60061 33895 ft 469 kts 289°
2026-05-08 00:34 57.64434 -12.71270 33878 ft 469 kts 289°
2026-05-08 00:35 57.66900 -12.82399 33860 ft 468 kts 289°
2026-05-08 00:35 57.69371 -12.93603 33856 ft 468 kts 289°
2026-05-08 00:36 57.71842 -13.04853 33852 ft 468 kts 289°
2026-05-08 00:36 57.74292 -13.16066 33852 ft 468 kts 289°
2026-05-08 00:37 57.76730 -13.27285 33850 ft 467 kts 289°
2026-05-08 00:38 57.80373 -13.44168 33848 ft 468 kts 289°
2026-05-08 00:38 57.82795 -13.55463 33846 ft 468 kts 289°
2026-05-08 00:39 57.85215 -13.66812 33847 ft 468 kts 289°
2026-05-08 00:39 57.87606 -13.78115 33847 ft 468 kts 289°
2026-05-08 00:40 57.89996 -13.89470 33849 ft 468 kts 289°
2026-05-08 00:40 57.92377 -14.00826 33852 ft 469 kts 289°
2026-05-08 00:41 57.94760 -14.12246 33853 ft 469 kts 289°
2026-05-08 00:41 57.97122 -14.23630 33860 ft 469 kts 289°
2026-05-08 00:42 57.99486 -14.35097 33862 ft 469 kts 289°
2026-05-08 00:42 58.01832 -14.46542 33867 ft 469 kts 289°
2026-05-08 00:43 58.04162 -14.57974 33863 ft 469 kts 289°
2026-05-08 00:43 58.06490 -14.69468 33887 ft 470 kts 288°
2026-05-08 00:44 58.08798 -14.80956 33935 ft 470 kts 288°
2026-05-08 00:44 58.11114 -14.92484 33961 ft 470 kts 289°
2026-05-08 00:45 58.13438 -15.04001 33973 ft 470 kts 289°
2026-05-08 00:45 58.15739 -15.15541 33981 ft 470 kts 289°
2026-05-08 00:46 58.18026 -15.27125 33988 ft 471 kts 289°
2026-05-08 00:46 58.20291 -15.38688 33996 ft 471 kts 289°
2026-05-08 00:47 58.22550 -15.50293 34003 ft 471 kts 289°
2026-05-08 00:47 58.24789 -15.61867 34008 ft 471 kts 289°
2026-05-08 00:48 58.27033 -15.73551 34014 ft 470 kts 288°
2026-05-08 00:48 58.29239 -15.85115 34016 ft 470 kts 288°
2026-05-08 00:49 58.31446 -15.96747 34020 ft 470 kts 288°
2026-05-08 00:49 58.33654 -16.08438 34021 ft 469 kts 288°
2026-05-08 00:50 58.35836 -16.20061 34023 ft 469 kts 288°
2026-05-08 00:50 58.38007 -16.31708 34024 ft 469 kts 288°
2026-05-08 00:51 58.40183 -16.43440 34024 ft 469 kts 288°
2026-05-08 00:51 58.42341 -16.55150 34023 ft 470 kts 288°
2026-05-08 00:52 58.44490 -16.66887 34026 ft 470 kts 288°
2026-05-08 00:52 58.46623 -16.78640 34027 ft 471 kts 288°
2026-05-08 00:53 58.48752 -16.90431 34032 ft 471 kts 288°
2026-05-08 00:53 58.50874 -17.02248 34039 ft 472 kts 288°
2026-05-08 00:54 58.52986 -17.14075 34049 ft 472 kts 288°
2026-05-08 00:54 58.55086 -17.25906 34055 ft 473 kts 288°
2026-05-08 00:55 58.57187 -17.37822 34061 ft 473 kts 288°
2026-05-08 00:55 58.59266 -17.49689 34066 ft 473 kts 289°
2026-05-08 00:56 58.61355 -17.61687 34070 ft 474 kts 289°
2026-05-08 00:56 58.63413 -17.73608 34077 ft 474 kts 288°
2026-05-08 00:57 58.65469 -17.85598 34088 ft 474 kts 288°
2026-05-08 00:57 58.67516 -17.97606 34092 ft 474 kts 288°
2026-05-08 00:58 58.69551 -18.09610 34098 ft 474 kts 288°
2026-05-08 00:58 58.71566 -18.21581 34102 ft 474 kts 288°
2026-05-08 00:59 58.73572 -18.33579 34104 ft 474 kts 288°
2026-05-08 00:59 58.75577 -18.45640 34111 ft 474 kts 288°
2026-05-08 01:00 58.77569 -18.57709 34124 ft 474 kts 288°
2026-05-08 01:00 58.79552 -18.69817 34131 ft 474 kts 288°
2026-05-08 01:01 58.81508 -18.81866 34136 ft 475 kts 288°
2026-05-08 01:01 58.83465 -18.93986 34140 ft 475 kts 288°
2026-05-08 01:02 58.85416 -19.06148 34145 ft 475 kts 288°
2026-05-08 01:02 58.87349 -19.18278 34149 ft 475 kts 288°
2026-05-08 01:03 58.89273 -19.30438 34152 ft 475 kts 288°
2026-05-08 01:03 58.91188 -19.42621 34156 ft 475 kts 288°
2026-05-08 01:04 58.93091 -19.54826 34158 ft 475 kts 288°
2026-05-08 01:04 58.94984 -19.67065 34161 ft 475 kts 287°
2026-05-08 01:05 58.96849 -19.79253 34164 ft 475 kts 287°
2026-05-08 01:05 58.98725 -19.91497 34164 ft 475 kts 289°
2026-05-08 01:06 59.00980 -20.03442 34170 ft 474 kts 294°
2026-05-08 01:06 59.03754 -20.15006 34170 ft 474 kts 297°
2026-05-08 01:07 59.06625 -20.26448 34174 ft 474 kts 297°
2026-05-08 01:07 59.09488 -20.37930 34177 ft 474 kts 297°
2026-05-08 01:08 59.12349 -20.49404 34179 ft 473 kts 297°
2026-05-08 01:08 59.15210 -20.60919 34179 ft 473 kts 297°
2026-05-08 01:09 59.18029 -20.72410 34181 ft 473 kts 297°
2026-05-08 01:09 59.20834 -20.83950 34183 ft 473 kts 297°
2026-05-08 01:10 59.23645 -20.95568 34186 ft 473 kts 297°
2026-05-08 01:10 59.26428 -21.07133 34206 ft 473 kts 297°
2026-05-08 01:11 59.29202 -21.18716 34231 ft 472 kts 297°
2026-05-08 01:11 59.31981 -21.30377 34241 ft 472 kts 297°
2026-05-08 01:12 59.34732 -21.41988 34246 ft 472 kts 297°
2026-05-08 01:12 59.37463 -21.53571 34248 ft 472 kts 297°
2026-05-08 01:13 59.40208 -21.65286 34249 ft 472 kts 296°
2026-05-08 01:13 59.42924 -21.76965 34250 ft 472 kts 296°
2026-05-08 01:14 59.45622 -21.88627 34251 ft 472 kts 297°
2026-05-08 01:14 59.48333 -22.00392 34252 ft 472 kts 297°
2026-05-08 01:15 59.51024 -22.12125 34252 ft 472 kts 297°
2026-05-08 01:15 59.53693 -22.23829 34249 ft 472 kts 297°
2026-05-08 01:16 59.56373 -22.35646 34244 ft 472 kts 297°
2026-05-08 01:16 59.59030 -22.47422 34242 ft 471 kts 297°
2026-05-08 01:17 59.61673 -22.59201 34243 ft 471 kts 297°
2026-05-08 01:17 59.64300 -22.70990 34243 ft 471 kts 296°
2026-05-08 01:18 59.66915 -22.82809 34241 ft 471 kts 296°
2026-05-08 01:18 59.69517 -22.94629 34236 ft 471 kts 296°
2026-05-08 01:19 59.72110 -23.06458 34231 ft 470 kts 296°
2026-05-08 01:19 59.74697 -23.18322 34229 ft 470 kts 297°
2026-05-08 01:20 59.77282 -23.30241 34228 ft 470 kts 297°
2026-05-08 01:20 59.79847 -23.42139 34229 ft 470 kts 297°
2026-05-08 01:21 59.82390 -23.54001 34230 ft 469 kts 297°
2026-05-08 01:21 59.84931 -23.65920 34231 ft 469 kts 296°
2026-05-08 01:22 59.87440 -23.77792 34231 ft 469 kts 296°
2026-05-08 01:22 59.89961 -23.89776 34232 ft 469 kts 296°
2026-05-08 01:23 59.92466 -24.01740 34231 ft 469 kts 297°
2026-05-08 01:23 59.94953 -24.13689 34233 ft 469 kts 297°
2026-05-08 01:24 59.97430 -24.25647 34233 ft 469 kts 297°
2026-05-08 01:24 59.99895 -24.37623 34234 ft 469 kts 297°
2026-05-08 01:25 60.02359 -24.49666 34239 ft 469 kts 297°
2026-05-08 01:25 60.04805 -24.61692 34242 ft 468 kts 297°
2026-05-08 01:26 60.07234 -24.73732 34244 ft 468 kts 296°
2026-05-08 01:26 60.09644 -24.85752 34245 ft 467 kts 296°
2026-05-08 01:27 60.12072 -24.97815 34248 ft 467 kts 296°
2026-05-08 01:27 60.14481 -25.09823 34248 ft 465 kts 296°
2026-05-08 01:28 60.16867 -25.21857 34248 ft 464 kts 297°
2026-05-08 01:28 60.19230 -25.33878 34246 ft 464 kts 297°
2026-05-08 01:29 60.21578 -25.45909 34244 ft 463 kts 297°
2026-05-08 01:29 60.23908 -25.57928 34241 ft 463 kts 297°
2026-05-08 01:30 60.26219 -25.69930 34239 ft 463 kts 296°
2026-05-08 01:30 60.28534 -25.82049 34235 ft 463 kts 296°
2026-05-08 01:31 60.30815 -25.94053 34236 ft 462 kts 296°
2026-05-08 01:31 60.33111 -26.06196 34232 ft 463 kts 296°
2026-05-08 01:32 60.35381 -26.18272 34240 ft 462 kts 296°
2026-05-08 01:32 60.37647 -26.30405 34244 ft 462 kts 296°
2026-05-08 01:33 60.39891 -26.42499 34248 ft 461 kts 297°
2026-05-08 01:33 60.42114 -26.54544 34252 ft 460 kts 297°
2026-05-08 01:34 60.44330 -26.66627 34256 ft 460 kts 296°
2026-05-08 01:34 60.46535 -26.78790 34261 ft 459 kts 296°
2026-05-08 01:35 60.48718 -26.90889 34263 ft 458 kts 296°
2026-05-08 01:35 60.50875 -27.02889 34263 ft 457 kts 296°
2026-05-08 01:36 60.53033 -27.14974 34261 ft 456 kts 297°
2026-05-08 01:36 60.55172 -27.27025 34259 ft 454 kts 297°
2026-05-08 01:37 60.57304 -27.39109 34257 ft 453 kts 297°
2026-05-08 01:37 60.59403 -27.51077 34251 ft 452 kts 297°
2026-05-08 01:38 60.61503 -27.63129 34248 ft 451 kts 297°
2026-05-08 01:38 60.63571 -27.75100 34243 ft 452 kts 297°
2026-05-08 01:39 60.65642 -27.87177 34241 ft 452 kts 297°
2026-05-08 01:39 60.67709 -27.99288 34238 ft 452 kts 297°
2026-05-08 01:40 60.69745 -28.11287 34252 ft 451 kts 297°
2026-05-08 01:40 60.71773 -28.23323 34264 ft 449 kts 297°
2026-05-08 01:41 60.73779 -28.35303 34254 ft 447 kts 297°
2026-05-08 01:41 60.75777 -28.47299 34241 ft 446 kts 297°
2026-05-08 01:42 60.77763 -28.59301 34241 ft 446 kts 298°
2026-05-08 01:42 60.79728 -28.71284 34241 ft 446 kts 297°
2026-05-08 01:43 60.81679 -28.83292 34243 ft 446 kts 297°
2026-05-08 01:43 60.83619 -28.95286 34243 ft 445 kts 297°
2026-05-08 01:44 60.85548 -29.07264 34245 ft 444 kts 297°
2026-05-08 01:44 60.87473 -29.19300 34244 ft 443 kts 297°
2026-05-08 01:45 60.89373 -29.31263 34243 ft 443 kts 297°
2026-05-08 01:45 60.91267 -29.43279 34242 ft 442 kts 297°
2026-05-08 01:46 60.93129 -29.55179 34240 ft 441 kts 298°
2026-05-08 01:46 60.94991 -29.67165 34239 ft 441 kts 297°
2026-05-08 01:47 60.96841 -29.79207 34237 ft 441 kts 297°
2026-05-08 01:47 60.98676 -29.91213 34237 ft 441 kts 297°
2026-05-08 01:48 61.01358 -30.09315 34239 ft 442 kts 296°
2026-05-08 01:48 61.03046 -30.21440 34239 ft 441 kts 296°
2026-05-08 01:49 61.04718 -30.33533 34252 ft 441 kts 296°
2026-05-08 01:49 61.06382 -30.45638 34256 ft 440 kts 296°
2026-05-08 01:50 61.08035 -30.57755 34238 ft 440 kts 296°
2026-05-08 01:50 61.09683 -30.69931 34232 ft 441 kts 295°
2026-05-08 01:51 61.11324 -30.82043 34233 ft 441 kts 295°
2026-05-08 01:51 61.12977 -30.94278 34233 ft 441 kts 295°
2026-05-08 01:52 61.14594 -31.06420 34234 ft 442 kts 295°
2026-05-08 01:52 61.16208 -31.18680 34235 ft 442 kts 294°
2026-05-08 01:53 61.17813 -31.30987 34233 ft 442 kts 294°
2026-05-08 01:53 61.19395 -31.43233 34233 ft 442 kts 294°
2026-05-08 01:54 61.20967 -31.55492 34231 ft 442 kts 294°
2026-05-08 01:54 61.22536 -31.67831 34232 ft 443 kts 293°
2026-05-08 01:55 61.24086 -31.80163 34231 ft 443 kts 293°
2026-05-08 01:55 61.25624 -31.92476 34238 ft 443 kts 292°
2026-05-08 01:56 61.27150 -32.04789 34241 ft 443 kts 292°
2026-05-08 01:56 61.28679 -32.17225 34242 ft 443 kts 292°
2026-05-08 01:57 61.30190 -32.29597 34251 ft 443 kts 292°
2026-05-08 01:57 61.31690 -32.41987 34248 ft 443 kts 292°
2026-05-08 01:58 61.33168 -32.54323 34246 ft 443 kts 292°
2026-05-08 01:58 61.34652 -32.66804 34244 ft 443 kts 291°
2026-05-08 01:59 61.36109 -32.79214 34246 ft 444 kts 291°
2026-05-08 01:59 61.37560 -32.91653 34245 ft 445 kts 291°
2026-05-08 02:00 61.39017 -33.04236 34246 ft 446 kts 291°
2026-05-08 02:00 61.40448 -33.16711 34245 ft 446 kts 290°
2026-05-08 02:01 61.41881 -33.29295 34245 ft 447 kts 290°
2026-05-08 02:01 61.43298 -33.41862 34244 ft 447 kts 290°
2026-05-08 02:02 61.44706 -33.54458 34243 ft 447 kts 290°
2026-05-08 02:02 61.46106 -33.67109 34243 ft 447 kts 289°
2026-05-08 02:03 61.47485 -33.79731 34241 ft 448 kts 289°
2026-05-08 02:03 61.48859 -33.92403 34240 ft 448 kts 289°
2026-05-08 02:04 61.50221 -34.05075 34239 ft 448 kts 289°
2026-05-08 02:04 61.51569 -34.17724 34239 ft 447 kts 289°
2026-05-08 02:05 61.52915 -34.30452 34237 ft 447 kts 289°
2026-05-08 02:05 61.54241 -34.43102 34238 ft 448 kts 288°
2026-05-08 02:06 61.55564 -34.55879 34235 ft 448 kts 288°
2026-05-08 02:06 61.56867 -34.68604 34235 ft 449 kts 287°
2026-05-08 02:07 61.58163 -34.81409 34234 ft 450 kts 287°
2026-05-08 02:07 61.59445 -34.94191 34234 ft 450 kts 287°
2026-05-08 02:08 61.60717 -35.06982 34233 ft 450 kts 287°
2026-05-08 02:08 61.61988 -35.19882 34230 ft 451 kts 287°
2026-05-08 02:09 61.63237 -35.32702 34227 ft 451 kts 287°
2026-05-08 02:09 61.64481 -35.45612 34228 ft 452 kts 286°
2026-05-08 02:10 61.65715 -35.58546 34226 ft 452 kts 286°
2026-05-08 02:10 61.66933 -35.71467 34227 ft 453 kts 285°
2026-05-08 02:11 61.68136 -35.84399 34227 ft 453 kts 285°
2026-05-08 02:11 61.69339 -35.97447 34225 ft 453 kts 285°
2026-05-08 02:12 61.70524 -36.10438 34225 ft 453 kts 285°
2026-05-08 02:12 61.71698 -36.23445 34224 ft 453 kts 285°
2026-05-08 02:13 61.72853 -36.36375 34223 ft 452 kts 284°
2026-05-08 02:13 61.74006 -36.49428 34223 ft 453 kts 284°
2026-05-08 02:14 61.75142 -36.62450 34221 ft 454 kts 284°
2026-05-08 02:14 61.76268 -36.75532 34221 ft 454 kts 283°
2026-05-08 02:15 61.77379 -36.88611 34218 ft 454 kts 283°
2026-05-08 02:15 61.78482 -37.01718 34216 ft 455 kts 283°
2026-05-08 02:16 61.79570 -37.14782 34215 ft 455 kts 283°
2026-05-08 02:16 61.80654 -37.27964 34216 ft 454 kts 283°
2026-05-08 02:17 61.81718 -37.41050 34211 ft 455 kts 283°
2026-05-08 02:17 61.82778 -37.54277 34201 ft 455 kts 282°
2026-05-08 02:18 61.83814 -37.67372 34197 ft 455 kts 281°
2026-05-08 02:18 61.84846 -37.80616 34196 ft 456 kts 281°
2026-05-08 02:19 61.85858 -37.93765 34199 ft 456 kts 281°
2026-05-08 02:19 61.86865 -38.07003 34200 ft 456 kts 281°
2026-05-08 02:20 61.87854 -38.20185 34202 ft 456 kts 281°
2026-05-08 02:20 61.88834 -38.33427 34203 ft 455 kts 281°
2026-05-08 02:21 61.89804 -38.46698 34205 ft 455 kts 281°
2026-05-08 02:21 61.90758 -38.59934 34205 ft 455 kts 281°
2026-05-08 02:22 61.91694 -38.73143 34206 ft 456 kts 280°
2026-05-08 02:22 61.92621 -38.86404 34204 ft 456 kts 280°
2026-05-08 02:23 61.93537 -38.99680 34203 ft 456 kts 280°
2026-05-08 02:23 61.94439 -39.12944 34203 ft 455 kts 280°
2026-05-08 02:24 61.95326 -39.26186 34202 ft 454 kts 280°
2026-05-08 02:24 61.96199 -39.39418 34201 ft 453 kts 280°
2026-05-08 02:25 61.97054 -39.52583 34202 ft 452 kts 280°
2026-05-08 02:25 61.97899 -39.65824 34205 ft 452 kts 279°
2026-05-08 02:26 61.98722 -39.78999 34206 ft 451 kts 279°
2026-05-08 02:26 61.99558 -39.92154 34204 ft 450 kts 281°
2026-05-08 02:27 62.00810 -40.05162 34205 ft 448 kts 286°
2026-05-08 02:27 62.02511 -40.17864 34203 ft 447 kts 288°
2026-05-08 02:28 62.04270 -40.30547 34202 ft 447 kts 288°
2026-05-08 02:28 62.06010 -40.43201 34198 ft 447 kts 288°
2026-05-08 02:29 62.07744 -40.55931 34199 ft 447 kts 288°
2026-05-08 02:29 62.09451 -40.68570 34201 ft 447 kts 287°
2026-05-08 02:30 62.11169 -40.81329 34200 ft 447 kts 287°
2026-05-08 02:30 62.12869 -40.93950 34201 ft 446 kts 287°
2026-05-08 02:31 62.14555 -41.06656 34202 ft 446 kts 286°
2026-05-08 02:31 62.16229 -41.19426 34202 ft 446 kts 286°
2026-05-08 02:32 62.17874 -41.32100 34202 ft 445 kts 286°
2026-05-08 02:32 62.19511 -41.44830 34201 ft 445 kts 286°
2026-05-08 02:33 62.21138 -41.57593 34199 ft 445 kts 286°
2026-05-08 02:33 62.22748 -41.70343 34199 ft 446 kts 285°
2026-05-08 02:34 62.24354 -41.83181 34197 ft 446 kts 285°
2026-05-08 02:34 62.25945 -41.95988 34196 ft 446 kts 285°
2026-05-08 02:35 62.27519 -42.08764 34194 ft 446 kts 284°
2026-05-08 02:35 62.29095 -42.21666 34194 ft 446 kts 284°
2026-05-08 02:36 62.30648 -42.34482 34182 ft 446 kts 284°
2026-05-08 02:36 62.32199 -42.47397 34152 ft 446 kts 284°
2026-05-08 02:37 62.33727 -42.60222 34124 ft 446 kts 284°
2026-05-08 02:37 62.35244 -42.73083 34106 ft 445 kts 283°
2026-05-08 02:38 62.36749 -42.85964 34088 ft 445 kts 283°
2026-05-08 02:38 62.38238 -42.98816 34087 ft 444 kts 283°
2026-05-08 02:39 62.39720 -43.11716 33775 ft 445 kts 283°
2026-05-08 02:39 62.40458 -43.18178 33422 ft 445 kts 283°
2026-05-08 02:39 62.41192 -43.24632 33087 ft 445 kts 283°
2026-05-08 02:40 62.41924 -43.31111 32825 ft 446 kts 283°
2026-05-08 02:40 62.42657 -43.37622 32685 ft 447 kts 283°
2026-05-08 02:40 62.44108 -43.50609 32565 ft 449 kts 283°
2026-05-08 02:41 62.45560 -43.63719 32568 ft 450 kts 283°
2026-05-08 02:41 62.46993 -43.76807 32612 ft 452 kts 282°
2026-05-08 02:42 62.48428 -43.90031 32648 ft 451 kts 282°
2026-05-08 02:42 62.49841 -44.03160 32626 ft 451 kts 282°
2026-05-08 02:43 62.51245 -44.16324 32580 ft 451 kts 282°
2026-05-08 02:43 62.52637 -44.29499 32536 ft 451 kts 282°
2026-05-08 02:44 62.54018 -44.42714 32500 ft 451 kts 282°
2026-05-08 02:44 62.55387 -44.55942 32477 ft 451 kts 282°
2026-05-08 02:45 62.56746 -44.69209 32463 ft 451 kts 281°
2026-05-08 02:45 62.58085 -44.82447 32448 ft 450 kts 281°
2026-05-08 02:46 62.59407 -44.95633 32437 ft 450 kts 281°
2026-05-08 02:46 62.60719 -45.08843 32427 ft 450 kts 281°
2026-05-08 02:47 62.62026 -45.22151 32418 ft 450 kts 281°
2026-05-08 02:47 62.63309 -45.35350 32414 ft 450 kts 281°
2026-05-08 02:48 62.64591 -45.48653 32414 ft 450 kts 281°
2026-05-08 02:48 62.65854 -45.61900 32418 ft 451 kts 281°
2026-05-08 02:49 62.67105 -45.75213 32422 ft 451 kts 280°
2026-05-08 02:49 62.68349 -45.88584 32422 ft 451 kts 280°
2026-05-08 02:50 62.69570 -46.01846 32426 ft 451 kts 280°
2026-05-08 02:50 62.70785 -46.15193 32427 ft 451 kts 280°
2026-05-08 02:51 62.71986 -46.28538 32426 ft 451 kts 280°
2026-05-08 02:51 62.73174 -46.41887 32434 ft 451 kts 280°
2026-05-08 02:52 62.74352 -46.55272 32444 ft 449 kts 279°
2026-05-08 02:52 62.75513 -46.68629 32451 ft 448 kts 279°
2026-05-08 02:53 62.76653 -46.81907 32457 ft 447 kts 278°
2026-05-08 02:53 62.77786 -46.95245 32465 ft 447 kts 278°
2026-05-08 02:54 62.78898 -47.08499 32477 ft 446 kts 278°
2026-05-08 02:54 62.80002 -47.21801 32498 ft 445 kts 278°
2026-05-08 02:55 62.81623 -47.41634 32536 ft 444 kts 278°
2026-05-08 02:56 62.82686 -47.54834 32565 ft 443 kts 278°
2026-05-08 02:56 62.83737 -47.68073 32588 ft 443 kts 277°
2026-05-08 02:57 62.84775 -47.81333 32606 ft 442 kts 277°
2026-05-08 02:57 62.85797 -47.94537 32618 ft 442 kts 277°
2026-05-08 02:58 62.86808 -48.07761 32628 ft 441 kts 277°
2026-05-08 02:58 62.87803 -48.20936 32643 ft 441 kts 277°
2026-05-08 02:59 62.88788 -48.34153 32663 ft 440 kts 277°
2026-05-08 02:59 62.89758 -48.47319 32699 ft 439 kts 277°
2026-05-08 03:00 62.90710 -48.60450 32746 ft 439 kts 276°
2026-05-08 03:00 62.91650 -48.73627 32782 ft 439 kts 276°
2026-05-08 03:01 62.92582 -48.86843 32809 ft 439 kts 276°
2026-05-08 03:01 62.93502 -49.00063 32833 ft 438 kts 275°
2026-05-08 03:02 62.94406 -49.13257 32887 ft 438 kts 275°
2026-05-08 03:02 62.95297 -49.26450 32975 ft 438 kts 275°
2026-05-08 03:03 62.96173 -49.39618 33129 ft 438 kts 275°
2026-05-08 03:03 62.96608 -49.46246 33266 ft 437 kts 275°
2026-05-08 03:03 62.97033 -49.52757 33468 ft 435 kts 275°
2026-05-08 03:03 62.97454 -49.59278 33692 ft 434 kts 275°
2026-05-08 03:04 62.97872 -49.65826 33885 ft 434 kts 274°
2026-05-08 03:04 62.98290 -49.72405 34003 ft 435 kts 274°
2026-05-08 03:04 62.98680 -49.78972 34079 ft 435 kts 272°
2026-05-08 03:05 62.99051 -49.92174 34141 ft 433 kts 268°
2026-05-08 03:05 62.98852 -50.05325 34173 ft 431 kts 263°
2026-05-08 03:06 62.98092 -50.18348 34132 ft 430 kts 258°
2026-05-08 03:06 62.96891 -50.31081 34110 ft 429 kts 256°
2026-05-08 03:07 62.95621 -50.43869 34110 ft 428 kts 256°
2026-05-08 03:07 62.94340 -50.56610 34110 ft 429 kts 256°
2026-05-08 03:08 62.93047 -50.69332 34120 ft 429 kts 255°
2026-05-08 03:08 62.91746 -50.82035 34124 ft 429 kts 255°
2026-05-08 03:09 62.90425 -50.94800 34125 ft 429 kts 255°
2026-05-08 03:09 62.89097 -51.07511 34123 ft 429 kts 255°
2026-05-08 03:10 62.87762 -51.20152 34122 ft 429 kts 255°
2026-05-08 03:10 62.86409 -51.32836 34125 ft 429 kts 255°
2026-05-08 03:11 62.85041 -51.45545 34129 ft 429 kts 255°
2026-05-08 03:11 62.83668 -51.58194 34130 ft 429 kts 255°
2026-05-08 03:12 62.82288 -51.70787 34131 ft 429 kts 254°
2026-05-08 03:12 62.80891 -51.83443 34130 ft 429 kts 254°
2026-05-08 03:13 62.79483 -51.96080 34128 ft 429 kts 254°
2026-05-08 03:13 62.78054 -52.08778 34126 ft 430 kts 253°
2026-05-08 03:14 62.76627 -52.21336 34120 ft 429 kts 253°
2026-05-08 03:14 62.75187 -52.33922 34118 ft 430 kts 253°
2026-05-08 03:15 62.73726 -52.46549 34118 ft 430 kts 253°
2026-05-08 03:15 62.72256 -52.59142 34119 ft 430 kts 253°
2026-05-08 03:16 62.70785 -52.71647 34119 ft 429 kts 252°
2026-05-08 03:16 62.69298 -52.84209 34117 ft 429 kts 252°
2026-05-08 03:17 62.67794 -52.96791 34116 ft 429 kts 252°
2026-05-08 03:17 62.66285 -53.09299 34116 ft 429 kts 252°
2026-05-08 03:18 62.64767 -53.21771 34115 ft 429 kts 252°
2026-05-08 03:18 62.63233 -53.34272 34115 ft 429 kts 252°
2026-05-08 03:19 62.61692 -53.46722 34115 ft 429 kts 252°
2026-05-08 03:19 62.60136 -53.59199 34115 ft 429 kts 252°
2026-05-08 03:20 62.58567 -53.71679 34115 ft 429 kts 251°
2026-05-08 03:20 62.56992 -53.84129 34115 ft 429 kts 251°
2026-05-08 03:21 62.55404 -53.96566 34113 ft 430 kts 251°
2026-05-08 03:21 62.53803 -54.08997 34113 ft 431 kts 251°
2026-05-08 03:22 62.52190 -54.21419 34109 ft 431 kts 250°
2026-05-08 03:22 62.50552 -54.33932 34107 ft 432 kts 250°
2026-05-08 03:23 62.48917 -54.46313 34106 ft 432 kts 250°
2026-05-08 03:23 62.47263 -54.58736 34105 ft 432 kts 250°
2026-05-08 03:24 62.45591 -54.71214 34103 ft 431 kts 249°
2026-05-08 03:24 62.43932 -54.83534 34099 ft 431 kts 249°
2026-05-08 03:25 62.42243 -54.95959 34084 ft 433 kts 249°
2026-05-08 03:25 62.40543 -55.08368 34073 ft 438 kts 249°
2026-05-08 03:26 62.38802 -55.20985 34068 ft 443 kts 249°
2026-05-08 03:26 62.37025 -55.33756 34065 ft 449 kts 248°
2026-05-08 03:27 62.35213 -55.46652 34061 ft 452 kts 248°
2026-05-08 03:27 62.33381 -55.59591 34060 ft 452 kts 248°
2026-05-08 03:28 62.31553 -55.72422 34060 ft 452 kts 247°
2026-05-08 03:28 62.29704 -55.85322 34058 ft 453 kts 247°
2026-05-08 03:29 62.27844 -55.98183 34057 ft 453 kts 247°
2026-05-08 03:29 62.25962 -56.11084 34050 ft 453 kts 247°
2026-05-08 03:30 62.23119 -56.30386 34032 ft 454 kts 247°
2026-05-08 03:31 62.19295 -56.55988 34009 ft 454 kts 247°
2026-05-08 03:32 62.16380 -56.75280 34008 ft 454 kts 246°
2026-05-08 03:32 62.14443 -56.87995 34005 ft 454 kts 246°
2026-05-08 03:33 62.12468 -57.00838 34003 ft 454 kts 246°
2026-05-08 03:33 62.10502 -57.13538 34002 ft 455 kts 246°
2026-05-08 03:34 62.08501 -57.26362 33994 ft 456 kts 246°
2026-05-08 03:34 62.06487 -57.39154 33986 ft 457 kts 246°
2026-05-08 03:35 62.04461 -57.51917 33976 ft 458 kts 246°
2026-05-08 03:35 62.02414 -57.64691 33970 ft 459 kts 246°
2026-05-08 03:36 62.00357 -57.77541 33965 ft 460 kts 248°
2026-05-08 03:36 61.99121 -57.90989 33958 ft 471 kts 260°
2026-05-08 03:37 61.99342 -58.04945 33959 ft 482 kts 273°
2026-05-08 03:37 62.01109 -58.18805 33963 ft 494 kts 287°
2026-05-08 03:38 62.04050 -58.32085 33977 ft 498 kts 291°
2026-05-08 03:38 62.07110 -58.45245 33988 ft 498 kts 291°
2026-05-08 03:39 62.10131 -58.58426 33995 ft 498 kts 291°
2026-05-08 03:39 62.13140 -58.71724 33998 ft 496 kts 290°
2026-05-08 03:40 62.16091 -58.84914 33990 ft 496 kts 290°
2026-05-08 03:40 62.19050 -58.98219 33991 ft 495 kts 290°
2026-05-08 03:41 62.21983 -59.11484 33989 ft 495 kts 290°
2026-05-08 03:41 62.24901 -59.24753 33991 ft 495 kts 290°
2026-05-08 03:42 62.27818 -59.38106 33990 ft 495 kts 290°
2026-05-08 03:42 62.30730 -59.51513 33992 ft 495 kts 290°
2026-05-08 03:43 62.33609 -59.64861 33992 ft 496 kts 290°
2026-05-08 03:43 62.36494 -59.78337 33992 ft 497 kts 289°
2026-05-08 03:44 62.39354 -59.91786 33993 ft 497 kts 289°
2026-05-08 03:44 62.42234 -60.05403 33991 ft 498 kts 289°
2026-05-08 03:45 62.45083 -60.18946 33988 ft 499 kts 289°
2026-05-08 03:45 62.47935 -60.32596 33984 ft 499 kts 289°
2026-05-08 03:46 62.50766 -60.46236 33982 ft 499 kts 289°
2026-05-08 03:46 62.53577 -60.59866 33982 ft 498 kts 289°
2026-05-08 03:47 62.56359 -60.73458 33982 ft 496 kts 288°
2026-05-08 03:47 62.59133 -60.87114 33981 ft 495 kts 288°
2026-05-08 03:48 62.61892 -61.00772 33982 ft 494 kts 288°
2026-05-08 03:48 62.64616 -61.14345 33982 ft 493 kts 288°
2026-05-08 03:49 62.67337 -61.27993 33983 ft 492 kts 288°
2026-05-08 03:49 62.70031 -61.41595 33984 ft 492 kts 288°
2026-05-08 03:50 62.72733 -61.55331 33985 ft 492 kts 288°
2026-05-08 03:50 62.75400 -61.68988 33984 ft 492 kts 287°
2026-05-08 03:51 62.78048 -61.82656 33986 ft 492 kts 287°
2026-05-08 03:51 62.80698 -61.96420 33984 ft 492 kts 287°
2026-05-08 03:52 62.83318 -62.10113 33984 ft 492 kts 287°
2026-05-08 03:52 62.85940 -62.23910 33983 ft 492 kts 287°
2026-05-08 03:53 62.88546 -62.37717 33967 ft 492 kts 287°
2026-05-08 03:53 62.91128 -62.51497 33962 ft 491 kts 287°
2026-05-08 03:54 62.93696 -62.65313 33971 ft 491 kts 286°
2026-05-08 03:54 62.96252 -62.79194 33974 ft 490 kts 286°
2026-05-08 03:55 62.98780 -62.93015 33973 ft 489 kts 286°
2026-05-08 03:55 63.01181 -63.06953 33973 ft 487 kts 284°
2026-05-08 03:56 63.03387 -63.20900 33970 ft 486 kts 283°
2026-05-08 03:56 63.05570 -63.34913 33970 ft 486 kts 283°
2026-05-08 03:57 63.07746 -63.48982 33970 ft 486 kts 283°
2026-05-08 03:57 63.09911 -63.63089 33969 ft 486 kts 283°
2026-05-08 03:58 63.12071 -63.77105 33969 ft 485 kts 282°
2026-05-08 03:58 63.14223 -63.91195 33970 ft 485 kts 282°
2026-05-08 03:59 63.16341 -64.05254 33971 ft 485 kts 282°
2026-05-08 03:59 63.18445 -64.19373 33972 ft 485 kts 282°
2026-05-08 04:00 63.20528 -64.33483 33939 ft 485 kts 282°
2026-05-08 04:00 63.22615 -64.47733 33908 ft 485 kts 282°
2026-05-08 04:01 63.24674 -64.61916 33909 ft 485 kts 282°
2026-05-08 04:01 63.26715 -64.76101 33908 ft 485 kts 281°
2026-05-08 04:02 63.28743 -64.90321 33903 ft 485 kts 281°
2026-05-08 04:02 63.30771 -65.04649 33902 ft 486 kts 282°
2026-05-08 04:03 63.32779 -65.18952 33868 ft 486 kts 282°
2026-05-08 04:03 63.35762 -65.40436 33836 ft 487 kts 282°
2026-05-08 04:04 63.37742 -65.54843 33840 ft 487 kts 282°
2026-05-08 04:04 63.39691 -65.69187 33826 ft 488 kts 281°
2026-05-08 04:05 63.41649 -65.83683 33803 ft 488 kts 281°
2026-05-08 04:05 63.43564 -65.98085 33813 ft 488 kts 281°
2026-05-08 04:06 63.45501 -66.12636 33827 ft 488 kts 281°
2026-05-08 04:06 63.47410 -66.27129 33814 ft 488 kts 281°
2026-05-08 04:07 63.49299 -66.41621 33802 ft 489 kts 281°
2026-05-08 04:07 63.51189 -66.56280 33808 ft 490 kts 281°
2026-05-08 04:08 63.53049 -66.70847 33769 ft 490 kts 281°
2026-05-08 04:08 63.54910 -66.85568 33717 ft 490 kts 281°
2026-05-08 04:09 63.56745 -67.00186 33690 ft 490 kts 281°
2026-05-08 04:09 63.58568 -67.14854 33713 ft 491 kts 281°
2026-05-08 04:10 63.60387 -67.29638 33745 ft 492 kts 281°
2026-05-08 04:10 63.62183 -67.44373 33770 ft 493 kts 281°
2026-05-08 04:11 63.63976 -67.59248 33788 ft 493 kts 281°
2026-05-08 04:11 63.65746 -67.74080 33785 ft 493 kts 281°
2026-05-08 04:12 63.67504 -67.88982 33787 ft 494 kts 281°
2026-05-08 04:12 63.69243 -68.03881 33813 ft 494 kts 281°
2026-05-08 04:13 63.70966 -68.18809 33815 ft 494 kts 281°
2026-05-08 04:13 63.72564 -68.33755 33807 ft 491 kts 277°
2026-05-08 04:14 63.73527 -68.48993 33819 ft 489 kts 271°
2026-05-08 04:14 63.73760 -68.64259 33833 ft 486 kts 265°
2026-05-08 04:15 63.73436 -68.79340 33842 ft 485 kts 263°
2026-05-08 04:15 63.73029 -68.94524 33833 ft 485 kts 263°
2026-05-08 04:16 63.72612 -69.09708 33817 ft 486 kts 263°
2026-05-08 04:16 63.72186 -69.24829 33791 ft 487 kts 263°
2026-05-08 04:17 63.71744 -69.39994 33771 ft 487 kts 263°
2026-05-08 04:17 63.71285 -69.55260 33761 ft 488 kts 263°
2026-05-08 04:18 63.70811 -69.70512 33746 ft 489 kts 262°
2026-05-08 04:18 63.70324 -69.85712 33723 ft 490 kts 263°
2026-05-08 04:19 63.69819 -70.00927 33697 ft 490 kts 263°
2026-05-08 04:19 63.69294 -70.16247 33699 ft 491 kts 263°
2026-05-08 04:20 63.68753 -70.31558 33718 ft 491 kts 263°
2026-05-08 04:20 63.68198 -70.46779 33747 ft 491 kts 263°
2026-05-08 04:21 63.67623 -70.62138 33764 ft 492 kts 263°
2026-05-08 04:21 63.67036 -70.77382 33772 ft 492 kts 262°
2026-05-08 04:22 63.66428 -70.92728 33776 ft 492 kts 262°
2026-05-08 04:22 63.65810 -71.07909 33775 ft 492 kts 262°
2026-05-08 04:23 63.65166 -71.23295 33779 ft 493 kts 262°
2026-05-08 04:23 63.64513 -71.38507 33784 ft 493 kts 262°
2026-05-08 04:24 63.63839 -71.53812 33791 ft 494 kts 262°
2026-05-08 04:24 63.63144 -71.69175 33794 ft 495 kts 261°
2026-05-08 04:25 63.62435 -71.84559 33794 ft 496 kts 262°
2026-05-08 04:25 63.61711 -71.99905 33795 ft 496 kts 262°
2026-05-08 04:26 63.60967 -72.15300 33800 ft 497 kts 262°
2026-05-08 04:26 63.60209 -72.30650 33804 ft 497 kts 262°
2026-05-08 04:27 63.59434 -72.45991 33801 ft 498 kts 262°
2026-05-08 04:27 63.58638 -72.61410 33798 ft 498 kts 262°
2026-05-08 04:28 63.57828 -72.76814 33794 ft 498 kts 261°
2026-05-08 04:28 63.57008 -72.92079 33787 ft 498 kts 261°
2026-05-08 04:29 63.56160 -73.07530 33780 ft 498 kts 261°
2026-05-08 04:29 63.55304 -73.22802 33772 ft 498 kts 261°
2026-05-08 04:30 63.54425 -73.38187 33765 ft 498 kts 261°
2026-05-08 04:30 63.53531 -73.53522 33757 ft 499 kts 261°
2026-05-08 04:31 63.52621 -73.68851 33749 ft 499 kts 260°
2026-05-08 04:31 63.51692 -73.84234 33746 ft 499 kts 260°
2026-05-08 04:32 63.50751 -73.99532 33745 ft 500 kts 260°
2026-05-08 04:32 63.49785 -74.14941 33742 ft 500 kts 260°
2026-05-08 04:33 63.48807 -74.30278 33736 ft 501 kts 260°
2026-05-08 04:33 63.47811 -74.45629 33734 ft 501 kts 260°
2026-05-08 04:34 63.46795 -74.61017 33731 ft 501 kts 260°
2026-05-08 04:34 63.45766 -74.76368 33724 ft 501 kts 259°
2026-05-08 04:35 63.44726 -74.91631 33719 ft 501 kts 259°
2026-05-08 04:35 63.43666 -75.06930 33714 ft 501 kts 259°
2026-05-08 04:36 63.42587 -75.22238 33709 ft 501 kts 259°
2026-05-08 04:36 63.41486 -75.37601 33705 ft 501 kts 259°
2026-05-08 04:37 63.40371 -75.52914 33700 ft 501 kts 259°
2026-05-08 04:37 63.39247 -75.68124 33697 ft 502 kts 258°
2026-05-08 04:38 63.38104 -75.83406 33696 ft 502 kts 258°
2026-05-08 04:38 63.36940 -75.98726 33693 ft 503 kts 258°
2026-05-08 04:39 63.35759 -76.14017 33682 ft 503 kts 258°
2026-05-08 04:39 63.34560 -76.29313 33665 ft 503 kts 258°
2026-05-08 04:40 63.33338 -76.44668 33658 ft 504 kts 258°
2026-05-08 04:40 63.32107 -76.59927 33663 ft 504 kts 258°
2026-05-08 04:41 63.30863 -76.75149 33663 ft 504 kts 258°
2026-05-08 04:41 63.29597 -76.90452 33658 ft 504 kts 258°
2026-05-08 04:42 63.28314 -77.05716 33652 ft 504 kts 258°
2026-05-08 04:42 63.27018 -77.20927 33648 ft 504 kts 258°
2026-05-08 04:43 63.25698 -77.36189 33645 ft 504 kts 258°
2026-05-08 04:43 63.24364 -77.51413 33645 ft 505 kts 258°
2026-05-08 04:44 63.23011 -77.66652 33637 ft 505 kts 257°
2026-05-08 04:44 63.21656 -77.81767 33629 ft 505 kts 257°
2026-05-08 04:45 63.20270 -77.97013 33632 ft 506 kts 257°
2026-05-08 04:45 63.18861 -78.12301 33634 ft 506 kts 257°
2026-05-08 04:46 63.17450 -78.27422 33635 ft 506 kts 257°
2026-05-08 04:46 63.16010 -78.42654 33641 ft 507 kts 257°
2026-05-08 04:47 63.14560 -78.57816 33642 ft 507 kts 257°
2026-05-08 04:47 63.13092 -78.72983 33642 ft 506 kts 256°
2026-05-08 04:48 63.11610 -78.88115 33639 ft 507 kts 256°
2026-05-08 04:48 63.10107 -79.03261 33638 ft 507 kts 256°
2026-05-08 04:49 63.08580 -79.18457 33637 ft 506 kts 256°
2026-05-08 04:49 63.07046 -79.33543 33634 ft 507 kts 256°
2026-05-08 04:50 63.05495 -79.48603 33631 ft 507 kts 256°
2026-05-08 04:50 63.03918 -79.63715 33631 ft 507 kts 256°
2026-05-08 04:51 63.02330 -79.78740 33629 ft 507 kts 255°
2026-05-08 04:51 63.00721 -79.93802 33628 ft 507 kts 255°
2026-05-08 04:52 62.98768 -80.08650 33628 ft 506 kts 250°
2026-05-08 04:52 62.96542 -80.23206 33623 ft 506 kts 250°
2026-05-08 04:53 62.94278 -80.37782 33620 ft 506 kts 250°
2026-05-08 04:53 62.91992 -80.52363 33620 ft 507 kts 250°
2026-05-08 04:54 62.89703 -80.66848 33620 ft 507 kts 249°
2026-05-08 04:54 62.87359 -80.81401 33617 ft 507 kts 249°
2026-05-08 04:55 62.85015 -80.95882 33615 ft 507 kts 249°
2026-05-08 04:55 62.82654 -81.10426 33613 ft 507 kts 249°
2026-05-08 04:56 62.80307 -81.24799 33614 ft 507 kts 249°
2026-05-08 04:56 62.77930 -81.39254 33614 ft 507 kts 249°
2026-05-08 04:57 62.75527 -81.53751 33613 ft 508 kts 249°
2026-05-08 04:57 62.73116 -81.68191 33613 ft 508 kts 248°
2026-05-08 04:58 62.70709 -81.82528 33613 ft 508 kts 248°
2026-05-08 04:58 62.68269 -81.96941 33613 ft 507 kts 248°
2026-05-08 04:59 62.65828 -82.11224 33612 ft 507 kts 248°
2026-05-08 04:59 62.63369 -82.25501 33609 ft 507 kts 248°
2026-05-08 05:00 62.60876 -82.39861 33607 ft 507 kts 248°
2026-05-08 05:00 62.58396 -82.54057 33609 ft 508 kts 249°
2026-05-08 05:01 62.55877 -82.68369 33610 ft 508 kts 248°
2026-05-08 05:01 62.53362 -82.82576 33610 ft 508 kts 248°
2026-05-08 05:02 62.50817 -82.96832 33609 ft 508 kts 248°
2026-05-08 05:02 62.48259 -83.11039 33609 ft 508 kts 248°
2026-05-08 05:03 62.45687 -83.25218 33611 ft 509 kts 248°
2026-05-08 05:03 62.43110 -83.39317 33613 ft 509 kts 248°
2026-05-08 05:04 62.40501 -83.53491 33616 ft 509 kts 248°
2026-05-08 05:04 62.37894 -83.67549 33614 ft 509 kts 247°
2026-05-08 05:05 62.35263 -83.81664 33614 ft 509 kts 247°
2026-05-08 05:05 62.32625 -83.95707 33613 ft 508 kts 247°
2026-05-08 05:06 62.29963 -84.09767 33612 ft 509 kts 247°
2026-05-08 05:06 62.27300 -84.23727 33610 ft 508 kts 247°
2026-05-08 05:07 62.24611 -84.37724 33611 ft 508 kts 247°
2026-05-08 05:07 62.21912 -84.51675 33610 ft 508 kts 247°
2026-05-08 05:08 62.19205 -84.65571 33610 ft 508 kts 246°
2026-05-08 05:08 62.16476 -84.79510 33608 ft 509 kts 246°
2026-05-08 05:09 62.13732 -84.93421 33607 ft 510 kts 246°
2026-05-08 05:09 62.10972 -85.07310 33607 ft 510 kts 246°
2026-05-08 05:10 62.06793 -85.28138 33607 ft 511 kts 246°
2026-05-08 05:11 62.03990 -85.41993 33608 ft 511 kts 246°
2026-05-08 05:11 62.01181 -85.55786 33610 ft 512 kts 246°
2026-05-08 05:12 61.98345 -85.69620 33614 ft 512 kts 245°
2026-05-08 05:12 61.95499 -85.83437 33619 ft 511 kts 245°
2026-05-08 05:13 61.92642 -85.97199 33624 ft 511 kts 245°
2026-05-08 05:13 61.89769 -86.10936 33627 ft 511 kts 245°
2026-05-08 05:14 61.86850 -86.24651 33627 ft 511 kts 245°
2026-05-08 05:14 61.83928 -86.38322 33631 ft 511 kts 245°
2026-05-08 05:15 61.81015 -86.51930 33632 ft 511 kts 245°
2026-05-08 05:15 61.78081 -86.65582 33632 ft 511 kts 245°
2026-05-08 05:16 61.75140 -86.79216 33633 ft 511 kts 245°
2026-05-08 05:16 61.72195 -86.92769 33633 ft 511 kts 245°
2026-05-08 05:17 61.69233 -87.06302 33629 ft 510 kts 245°
2026-05-08 05:17 61.66259 -87.19791 33624 ft 511 kts 245°
2026-05-08 05:18 61.63275 -87.33247 33623 ft 511 kts 245°
2026-05-08 05:18 61.60264 -87.46735 33621 ft 511 kts 245°
2026-05-08 05:19 61.57241 -87.60189 33623 ft 511 kts 245°
2026-05-08 05:19 61.54209 -87.73611 33624 ft 512 kts 244°
2026-05-08 05:20 61.51149 -87.87087 33627 ft 513 kts 244°
2026-05-08 05:20 61.48082 -88.00494 33632 ft 513 kts 244°
2026-05-08 05:21 61.44995 -88.13889 33634 ft 513 kts 244°
2026-05-08 05:21 61.41899 -88.27245 33636 ft 513 kts 244°
2026-05-08 05:22 61.38784 -88.40597 33639 ft 513 kts 244°
2026-05-08 05:22 61.35667 -88.53873 33642 ft 513 kts 244°
2026-05-08 05:23 61.32517 -88.67210 33644 ft 513 kts 243°
2026-05-08 05:23 61.29378 -88.80447 33646 ft 513 kts 243°
2026-05-08 05:24 61.26209 -88.93716 33647 ft 513 kts 243°
2026-05-08 05:24 61.23031 -89.06929 33647 ft 513 kts 243°
2026-05-08 05:25 61.19846 -89.20080 33648 ft 513 kts 244°
2026-05-08 05:25 61.16630 -89.33279 33647 ft 513 kts 244°
2026-05-08 05:26 61.13417 -89.46378 33647 ft 513 kts 244°
2026-05-08 05:26 61.10189 -89.59454 33646 ft 513 kts 244°
2026-05-08 05:27 61.06954 -89.72479 33644 ft 513 kts 243°
2026-05-08 05:27 61.03681 -89.85571 33644 ft 513 kts 243°
2026-05-08 05:28 61.00368 -89.98532 33644 ft 513 kts 240°
2026-05-08 05:28 60.96599 -90.10913 33647 ft 514 kts 237°
2026-05-08 05:29 60.92680 -90.23077 33646 ft 514 kts 237°
2026-05-08 05:29 60.88713 -90.35294 33645 ft 514 kts 237°
2026-05-08 05:30 60.84724 -90.47424 33644 ft 514 kts 237°
2026-05-08 05:30 60.80753 -90.59474 33644 ft 514 kts 237°
2026-05-08 05:31 60.76765 -90.71564 33645 ft 514 kts 236°
2026-05-08 05:31 60.72758 -90.83683 33646 ft 514 kts 236°
2026-05-08 05:32 60.68770 -90.95669 33646 ft 514 kts 236°
2026-05-08 05:32 60.64770 -91.07612 33647 ft 514 kts 236°
2026-05-08 05:33 60.60741 -91.19576 33648 ft 514 kts 236°
2026-05-08 05:33 60.56700 -91.31519 33648 ft 514 kts 237°
2026-05-08 05:34 60.52639 -91.43460 33648 ft 514 kts 237°
2026-05-08 05:34 60.48586 -91.55318 33649 ft 514 kts 237°
2026-05-08 05:35 60.44504 -91.67202 33649 ft 514 kts 236°
2026-05-08 05:35 60.40438 -91.79012 33649 ft 515 kts 236°
2026-05-08 05:36 60.36356 -91.90796 33650 ft 514 kts 236°
2026-05-08 05:36 60.32232 -92.02628 33650 ft 514 kts 236°
2026-05-08 05:37 60.28121 -92.14356 33654 ft 513 kts 236°
2026-05-08 05:37 60.24025 -92.25982 33653 ft 513 kts 236°
2026-05-08 05:38 60.19889 -92.37665 33656 ft 513 kts 236°
2026-05-08 05:38 60.15765 -92.49254 33657 ft 513 kts 236°
2026-05-08 05:39 60.11623 -92.60836 33657 ft 513 kts 236°
2026-05-08 05:39 60.07455 -92.72447 33658 ft 513 kts 235°
2026-05-08 05:40 60.03300 -92.83981 33659 ft 514 kts 235°
2026-05-08 05:40 59.99127 -92.95489 33661 ft 514 kts 235°
2026-05-08 05:41 59.94928 -93.07006 33661 ft 514 kts 235°
2026-05-08 05:41 59.90723 -93.18482 33668 ft 514 kts 235°
2026-05-08 05:42 59.86496 -93.29894 33674 ft 512 kts 235°
2026-05-08 05:42 59.82284 -93.41193 33669 ft 511 kts 236°
2026-05-08 05:43 59.78060 -93.52520 33664 ft 511 kts 236°
2026-05-08 05:43 59.73857 -93.63757 33661 ft 511 kts 236°
2026-05-08 05:44 59.69624 -93.75050 33659 ft 511 kts 235°
2026-05-08 05:44 59.65407 -93.86253 33658 ft 511 kts 235°
2026-05-08 05:45 59.61153 -93.97484 33657 ft 512 kts 235°
2026-05-08 05:45 59.56878 -94.08707 33659 ft 511 kts 235°
2026-05-08 05:46 59.52613 -94.19849 33664 ft 511 kts 235°
2026-05-08 05:46 59.48341 -94.30956 33666 ft 511 kts 235°
2026-05-08 05:47 59.44041 -94.42081 33669 ft 511 kts 235°
2026-05-08 05:47 59.39773 -94.53075 33674 ft 511 kts 235°
2026-05-08 05:48 59.35460 -94.64131 33677 ft 510 kts 235°
2026-05-08 05:48 59.31173 -94.75094 33678 ft 510 kts 234°
2026-05-08 05:49 59.26870 -94.86044 33678 ft 509 kts 234°
2026-05-08 05:49 59.22556 -94.96959 33677 ft 509 kts 234°
2026-05-08 05:50 59.18240 -95.07820 33678 ft 509 kts 234°
2026-05-08 05:50 59.13895 -95.18703 33680 ft 508 kts 234°
2026-05-08 05:51 59.09580 -95.29460 33682 ft 508 kts 234°
2026-05-08 05:51 59.05230 -95.40257 33678 ft 508 kts 235°
2026-05-08 05:52 59.00922 -95.51064 33708 ft 507 kts 236°
2026-05-08 05:52 58.96893 -95.62156 33852 ft 505 kts 239°
2026-05-08 05:53 58.93186 -95.73587 34040 ft 503 kts 242°
2026-05-08 05:53 58.91436 -95.79496 34149 ft 502 kts 244°
2026-05-08 05:53 58.89791 -95.85397 34253 ft 501 kts 245°
2026-05-08 05:53 58.88208 -95.91396 34354 ft 501 kts 246°
2026-05-08 05:54 58.86683 -95.97446 34461 ft 500 kts 248°
2026-05-08 05:54 58.85230 -96.03484 34576 ft 500 kts 249°
2026-05-08 05:54 58.83826 -96.09604 34710 ft 499 kts 250°
2026-05-08 05:54 58.82489 -96.15720 34852 ft 497 kts 251°
2026-05-08 05:55 58.81219 -96.21839 35002 ft 496 kts 252°
2026-05-08 05:55 58.79986 -96.28103 35161 ft 495 kts 253°
2026-05-08 05:55 58.78840 -96.34265 35308 ft 494 kts 254°
2026-05-08 05:55 58.77737 -96.40550 35464 ft 492 kts 255°
2026-05-08 05:56 58.76707 -96.46793 35627 ft 491 kts 256°
2026-05-08 05:56 58.75735 -96.53085 35799 ft 489 kts 257°
2026-05-08 05:56 58.74842 -96.59285 35972 ft 487 kts 258°
2026-05-08 05:56 58.74003 -96.65560 36153 ft 484 kts 259°
2026-05-08 05:57 58.73227 -96.71861 36340 ft 481 kts 260°
2026-05-08 05:57 58.72527 -96.78111 36533 ft 478 kts 261°
2026-05-08 05:57 58.71900 -96.84303 36724 ft 475 kts 262°
2026-05-08 05:57 58.71337 -96.90527 36915 ft 471 kts 263°
2026-05-08 05:58 58.70849 -96.96659 37109 ft 467 kts 264°
2026-05-08 05:58 58.70422 -97.02861 37301 ft 463 kts 266°
2026-05-08 05:58 58.70070 -97.08954 37490 ft 459 kts 267°
2026-05-08 05:58 58.69787 -97.14977 37676 ft 454 kts 268°
2026-05-08 05:59 58.69571 -97.20988 37885 ft 450 kts 269°
2026-05-08 05:59 58.69423 -97.26983 38106 ft 446 kts 271°
2026-05-08 05:59 58.69344 -97.32838 38332 ft 441 kts 272°
2026-05-08 05:59 58.69332 -97.38711 38552 ft 437 kts 273°
2026-05-08 06:00 58.69388 -97.44538 38755 ft 433 kts 275°
2026-05-08 06:00 58.69509 -97.50229 38939 ft 429 kts 276°
2026-05-08 06:00 58.69698 -97.55922 39112 ft 426 kts 277°
2026-05-08 06:00 58.69953 -97.61560 39272 ft 422 kts 278°
2026-05-08 06:01 58.70274 -97.67126 39420 ft 419 kts 279°
2026-05-08 06:01 58.70662 -97.72659 39558 ft 416 kts 281°
2026-05-08 06:01 58.71112 -97.78129 39677 ft 413 kts 282°
2026-05-08 06:01 58.71621 -97.83489 39785 ft 410 kts 283°
2026-05-08 06:02 58.72199 -97.88876 39888 ft 407 kts 284°
2026-05-08 06:02 58.73520 -97.99290 40058 ft 402 kts 287°
2026-05-08 06:03 58.75088 -98.09499 40199 ft 396 kts 290°
2026-05-08 06:03 58.76892 -98.19427 40327 ft 392 kts 293°
2026-05-08 06:04 58.78933 -98.29082 40449 ft 387 kts 296°
2026-05-08 06:04 58.81186 -98.38367 40549 ft 382 kts 299°
2026-05-08 06:05 58.83666 -98.47333 40608 ft 378 kts 302°
2026-05-08 06:05 58.86360 -98.55952 40472 ft 380 kts 305°
2026-05-08 06:06 58.89347 -98.64428 40359 ft 381 kts 308°
2026-05-08 06:06 58.92532 -98.72533 40322 ft 380 kts 310°
2026-05-08 06:07 58.95891 -98.80300 40332 ft 378 kts 313°
2026-05-08 06:07 58.99447 -98.87780 40370 ft 375 kts 316°
2026-05-08 06:08 59.03113 -98.94791 40387 ft 372 kts 319°
2026-05-08 06:08 59.06984 -99.01509 40293 ft 373 kts 321°
2026-05-08 06:09 59.11003 -99.07816 40254 ft 373 kts 324°
2026-05-08 06:09 59.15202 -99.13638 40263 ft 371 kts 328°
2026-05-08 06:10 59.19559 -99.18883 40261 ft 369 kts 332°
2026-05-08 06:10 59.24092 -99.23573 40207 ft 370 kts 335°
2026-05-08 06:11 59.28772 -99.27676 40189 ft 369 kts 339°
2026-05-08 06:11 59.33537 -99.31146 40197 ft 368 kts 343°
2026-05-08 06:12 59.38413 -99.34006 40168 ft 368 kts 346°
2026-05-08 06:12 59.43395 -99.36245 40136 ft 367 kts 350°
2026-05-08 06:13 59.48401 -99.37826 40138 ft 366 kts 354°
2026-05-08 06:13 59.53485 -99.38763 40118 ft 366 kts 357°
2026-05-08 06:14 59.58539 -99.39035 40087 ft 367 kts
2026-05-08 06:14 59.63641 -99.38640 40088 ft 366 kts
2026-05-08 06:15 59.68666 -99.37584 40069 ft 366 kts
2026-05-08 06:15 59.73673 -99.35853 40041 ft 366 kts 12°
2026-05-08 06:16 59.78582 -99.33467 40043 ft 366 kts 15°
2026-05-08 06:16 59.83435 -99.30399 40018 ft 366 kts 19°
2026-05-08 06:17 59.90463 -99.24584 39997 ft 366 kts 25°
2026-05-08 06:17 59.94939 -99.19936 39995 ft 366 kts 29°
2026-05-08 06:18 59.99264 -99.14642 39980 ft 366 kts 33°
2026-05-08 06:18 60.03397 -99.08734 39971 ft 366 kts 37°
2026-05-08 06:19 60.07305 -99.02252 39939 ft 367 kts 40°
2026-05-08 06:19 60.10999 -98.95163 39928 ft 367 kts 44°
2026-05-08 06:20 60.14441 -98.87695 39937 ft 367 kts 47°
2026-05-08 06:20 60.17687 -98.79836 39905 ft 368 kts 50°
2026-05-08 06:21 60.20721 -98.71622 39907 ft 368 kts 53°
2026-05-08 06:21 60.23546 -98.63046 39890 ft 368 kts 56°
2026-05-08 06:22 60.26126 -98.54210 39870 ft 369 kts 59°
2026-05-08 06:22 60.28473 -98.45084 39864 ft 369 kts 62°
2026-05-08 06:23 60.30576 -98.35706 39813 ft 370 kts 65°
2026-05-08 06:23 60.32434 -98.26025 39805 ft 370 kts 69°
2026-05-08 06:24 60.33998 -98.16187 39802 ft 371 kts 72°
2026-05-08 06:24 60.35284 -98.06116 39769 ft 372 kts 76°
2026-05-08 06:25 60.36279 -97.95903 39772 ft 372 kts 79°
2026-05-08 06:25 60.36979 -97.85569 39751 ft 373 kts 82°
2026-05-08 06:26 60.37384 -97.75139 39722 ft 374 kts 85°
2026-05-08 06:26 60.37489 -97.64659 39732 ft 374 kts 88°
2026-05-08 06:27 60.37294 -97.54181 39707 ft 375 kts 91°
2026-05-08 06:27 60.36799 -97.43774 39700 ft 375 kts 95°
2026-05-08 06:28 60.35996 -97.33330 39710 ft 376 kts 98°
2026-05-08 06:28 60.34902 -97.23037 39668 ft 377 kts 102°
2026-05-08 06:29 60.33520 -97.12869 39669 ft 377 kts 105°
2026-05-08 06:29 60.31850 -97.02847 39680 ft 377 kts 108°
2026-05-08 06:30 60.29913 -96.93070 39630 ft 379 kts 111°
2026-05-08 06:30 60.27677 -96.83405 39617 ft 380 kts 114°
2026-05-08 06:31 60.25194 -96.74081 39622 ft 380 kts 117°
2026-05-08 06:31 60.22458 -96.65061 39573 ft 382 kts 120°
2026-05-08 06:32 60.19453 -96.56307 39553 ft 382 kts 123°
2026-05-08 06:32 60.16190 -96.47868 39550 ft 383 kts 127°
2026-05-08 06:33 60.12694 -96.39825 39509 ft 384 kts 130°
2026-05-08 06:33 60.08972 -96.32191 39499 ft 385 kts 134°
2026-05-08 06:34 60.05048 -96.24929 39464 ft 386 kts 137°
2026-05-08 06:34 60.00937 -96.18044 39451 ft 387 kts 140°
2026-05-08 06:35 59.96679 -96.11603 39459 ft 387 kts 142°
2026-05-08 06:35 59.92245 -96.05567 39425 ft 388 kts 145°
2026-05-08 06:36 59.87650 -95.99979 39419 ft 388 kts 148°
2026-05-08 06:36 59.82894 -95.94965 39406 ft 389 kts 152°
2026-05-08 06:37 59.77965 -95.90539 39384 ft 390 kts 156°
2026-05-08 06:37 59.72930 -95.86749 39379 ft 390 kts 160°
2026-05-08 06:38 59.67765 -95.83570 39352 ft 391 kts 163°
2026-05-08 06:38 59.62478 -95.81008 39351 ft 391 kts 167°
2026-05-08 06:39 59.57147 -95.79098 39341 ft 391 kts 170°
2026-05-08 06:39 59.51763 -95.77825 39325 ft 392 kts 174°
2026-05-08 06:40 59.46359 -95.77193 39329 ft 392 kts 178°
2026-05-08 06:40 59.40911 -95.77196 39297 ft 393 kts 181°
2026-05-08 06:41 59.35464 -95.77841 39279 ft 393 kts 185°
2026-05-08 06:41 59.30068 -95.79116 39289 ft 393 kts 188°
2026-05-08 06:42 59.24702 -95.81023 39274 ft 393 kts 192°
2026-05-08 06:42 59.19384 -95.83565 39276 ft 393 kts 195°
2026-05-08 06:43 59.14192 -95.86702 39286 ft 393 kts 199°
2026-05-08 06:43 59.09100 -95.90447 39277 ft 393 kts 203°
2026-05-08 06:44 59.04136 -95.94785 39296 ft 392 kts 207°
2026-05-08 06:44 58.99323 -95.99702 39297 ft 392 kts 211°
2026-05-08 06:45 58.94672 -96.05194 39299 ft 392 kts 214°
2026-05-08 06:45 58.90245 -96.11189 39343 ft 391 kts 218°
2026-05-08 06:46 58.85989 -96.17696 39356 ft 390 kts 221°
2026-05-08 06:46 58.81906 -96.24584 39378 ft 389 kts 224°
2026-05-08 06:47 58.78026 -96.31792 39394 ft 388 kts 227°
2026-05-08 06:47 58.74347 -96.39312 39388 ft 388 kts 230°
2026-05-08 06:48 58.70857 -96.47170 39410 ft 386 kts 233°
2026-05-08 06:48 58.67591 -96.55284 39408 ft 386 kts 236°
2026-05-08 06:49 58.64526 -96.63709 39426 ft 385 kts 239°
2026-05-08 06:49 58.61714 -96.72344 39424 ft 384 kts 242°
2026-05-08 06:50 58.59145 -96.81299 39414 ft 384 kts 245°
2026-05-08 06:50 58.56621 -96.90372 39288 ft 390 kts 238°
2026-05-08 06:51 58.53282 -96.98536 39187 ft 396 kts 227°
2026-05-08 06:51 58.49023 -97.05293 39043 ft 403 kts 206°
2026-05-08 06:52 58.46436 -97.07204 38876 ft 409 kts 197°
2026-05-08 06:52 58.43654 -97.08673 38675 ft 416 kts 189°
2026-05-08 06:52 58.40798 -97.09557 38554 ft 420 kts 195°
2026-05-08 06:52 58.38072 -97.11519 38424 ft 422 kts 210°
2026-05-08 06:53 58.35615 -97.14523 38298 ft 424 kts 220°
2026-05-08 06:53 58.33444 -97.18258 38173 ft 427 kts 230°
2026-05-08 06:53 58.31504 -97.22577 38055 ft 431 kts 232°
2026-05-08 06:53 58.29601 -97.26995 37934 ft 436 kts 232°
2026-05-08 06:54 58.27667 -97.31456 37809 ft 442 kts 232°
2026-05-08 06:54 58.25703 -97.35922 37694 ft 447 kts 232°
2026-05-08 06:54 58.21646 -97.45019 37493 ft 457 kts 231°
2026-05-08 06:55 58.19575 -97.49626 37392 ft 463 kts 231°
2026-05-08 06:55 58.17463 -97.54306 37291 ft 470 kts 231°
2026-05-08 06:55 58.13164 -97.63793 37093 ft 484 kts 231°
2026-05-08 06:56 58.08722 -97.73570 36888 ft 497 kts 231°
2026-05-08 06:56 58.06473 -97.78507 36685 ft 504 kts 231°
2026-05-08 06:56 58.04179 -97.83527 36494 ft 506 kts 231°
2026-05-08 06:57 58.01881 -97.88538 36307 ft 506 kts 231°
2026-05-08 06:57 57.99600 -97.93499 36124 ft 505 kts 231°
2026-05-08 06:57 57.97302 -97.98483 35943 ft 505 kts 231°
2026-05-08 06:57 57.95014 -98.03432 35809 ft 505 kts 231°
2026-05-08 06:58 57.90411 -98.13361 35787 ft 504 kts 231°
2026-05-08 06:58 57.85786 -98.23243 35788 ft 504 kts 231°
2026-05-08 06:59 57.81181 -98.33039 35785 ft 504 kts 231°
2026-05-08 06:59 57.76550 -98.42881 35783 ft 504 kts 231°
2026-05-08 07:00 57.71939 -98.52657 35785 ft 504 kts 231°
2026-05-08 07:00 57.67313 -98.62427 35788 ft 503 kts 231°